TimePDT,TemperatureF,Dew PointF,Humidity,Sea Level PressureIn,VisibilityMPH,Wind Direction,Wind SpeedMPH,Gust SpeedMPH,PrecipitationIn,Events,Conditions,WindDirDegrees,DateUTC
12:52 AM,46.9,12.0,24,30.02,-9999.0,South,4.6,-,N/A,,Unknown,190,2012-10-19 07:52:00
1:52 AM,43.0,12.0,28,30.03,-9999.0,SE,5.8,-,N/A,,Unknown,140,2012-10-19 08:52:00
2:52 AM,48.0,12.9,24,30.00,-9999.0,SSE,6.9,-,N/A,,Unknown,150,2012-10-19 09:52:00
3:52 AM,39.0,12.0,33,30.02,-9999.0,SW,3.5,-,N/A,,Unknown,230,2012-10-19 10:52:00
4:52 AM,41.0,15.1,35,30.00,-9999.0,SSE,3.5,-,N/A,,Unknown,160,2012-10-19 11:52:00
5:52 AM,42.1,14.0,32,30.02,-9999.0,North,3.5,-,N/A,,Unknown,360,2012-10-19 12:52:00
6:52 AM,42.1,17.1,37,30.03,-9999.0,SE,5.8,-,N/A,,Unknown,130,2012-10-19 13:52:00
7:52 AM,54.0,18.0,24,30.04,-9999.0,SSE,5.8,-,N/A,,Unknown,160,2012-10-19 14:52:00
8:52 AM,57.0,21.9,26,30.01,-9999.0,Calm,Calm,-,N/A,,Unknown,0,2012-10-19 15:52:00
9:52 AM,66.9,25.0,21,30.01,-9999.0,SW,5.8,-,N/A,,Unknown,220,2012-10-19 16:52:00
10:52 AM,69.1,28.0,22,29.97,-9999.0,SW,17.3,24.2,N/A,,Unknown,220,2012-10-19 17:52:00
11:52 AM,71.1,28.0,20,29.96,-9999.0,SW,17.3,21.9,N/A,,Unknown,220,2012-10-19 18:52:00
12:52 PM,71.1,28.0,20,29.93,-9999.0,SSW,15.0,24.2,N/A,,Unknown,210,2012-10-19 19:52:00
1:52 PM,72.0,28.9,20,29.89,-9999.0,SW,15.0,24.2,N/A,,Unknown,220,2012-10-19 20:52:00
2:52 PM,73.0,30.9,21,29.85,-9999.0,SSW,16.1,26.5,N/A,,Unknown,200,2012-10-19 21:52:00
3:52 PM,73.0,33.1,23,29.84,-9999.0,SW,16.1,25.3,N/A,,Unknown,230,2012-10-19 22:52:00
4:52 PM,73.0,35.1,25,29.82,-9999.0,SW,18.4,27.6,N/A,,Unknown,230,2012-10-19 23:52:00
5:52 PM,70.0,35.1,28,29.81,-9999.0,SW,8.1,17.3,N/A,,Unknown,230,2012-10-20 00:52:00
6:52 PM,66.0,34.0,30,29.81,-9999.0,South,4.6,-,N/A,,Unknown,180,2012-10-20 01:52:00
7:52 PM,66.9,35.1,31,29.77,-9999.0,SSW,9.2,-,N/A,,Unknown,210,2012-10-20 02:52:00
8:52 PM,62.1,35.1,37,29.77,-9999.0,SW,12.7,-,N/A,,Unknown,230,2012-10-20 03:52:00
9:52 PM,60.1,34.0,38,29.75,-9999.0,SW,12.7,-,N/A,,Unknown,220,2012-10-20 04:52:00
10:52 PM,57.9,34.0,41,29.74,-9999.0,SSW,12.7,-,N/A,,Unknown,200,2012-10-20 05:52:00
11:52 PM,60.1,36.0,41,29.74,-9999.0,SW,17.3,-,N/A,,Unknown,220,2012-10-20 06:52:00